[[{"header":{"parameterUnit":"m.s-1","parameterCategory":1,"la1":30.2991,"la2":30.254,"lo1":-89.0895,"lo2":-89.0444,"dy":0.0017,"dx":0.0017,"nx":28,"ny":28,"refTime":"2026-02-26T09:00:00:Z","depth":0,"parameterNumber":2,"parameterNumberName":"U-component_of_WINDS"},"data":[0,0,0,0,0,0,0,0,0,0,0,0,0,0,0,0,0,0,0,0,0,0,0,0,0,0,0,0,0,0,0,0,0,0,0,0,0,0,0,0,0,0,0,0,0,0,0,0,0,0,0,0,0,0,0,0,0,0,-1.5999,-1.5999,0,-1.6031,-1.6031,-1.6032,-1.6002,-1.6001,-1.5999,-1.5998,-1.6035,-1.6037,-1.6039,0,0,0,0,0,0,0,0,0,0,0,0,0,-1.5914,-1.5915,-1.5998,-1.5999,-1.5999,-1.6031,-1.6031,-1.6032,-1.6002,-1.6001,-1.5999,-1.5998,-1.6034,-1.6037,-1.6039,0,0,0,0,0,0,0,0,0,0,0,0,0,-1.5949,-1.5916,-1.5998,-1.5988,-1.5988,-1.6031,-1.6031,-1.6032,-1.6002,-1.6001,-1.5999,-1.5997,-1.6033,-1.6036,-1.604,-1.6096,0,0,-1.6049,-1.6051,0,0,0,0,0,0,0,0,-1.5947,-1.5952,-1.5989,-1.5989,-1.5988,-1.601,-1.6015,-1.6053,-1.6003,-1.5997,-1.5998,-1.5996,-1.6028,-1.6032,-1.6042,-1.6097,-1.6099,-1.6049,-1.6051,-1.6053,-1.6054,0,0,0,0,0,0,0,-1.5945,-1.5951,-1.6011,-1.599,-1.5989,-1.5983,-1.5986,-1.6022,-1.6023,-1.5997,-1.5995,-1.5999,-1.6028,-1.6039,-1.6043,-1.6099,-1.6049,-1.6052,-1.6054,-1.6055,-1.6202,-1.6204,0,0,0,0,0,0,-1.5943,-1.5949,-1.601,-1.6012,-1.5963,-1.5986,-1.5989,-1.6005,-1.6022,-1.6023,-1.6001,-1.5998,-1.6035,-1.6039,-1.6044,-1.6111,-1.6053,-1.6056,-1.6057,-1.62,-1.6203,-1.6205,0,0,0,0,0,0,-1.5941,-1.5949,-1.6009,-1.598,-1.5987,-1.5989,-1.6008,-1.6007,-1.6018,-1.6025,-1.6025,-1.6012,-1.6033,-1.6039,-1.6083,-1.6112,-1.6057,-1.606,-1.6198,-1.6201,-1.6204,-1.6245,0,0,0,0,0,0,-1.5939,-1.5948,-1.5969,-1.5981,-1.5989,-1.6047,-1.6009,-1.6009,-1.6023,-1.6019,-1.6035,-1.6036,-1.6032,-1.6078,-1.6086,-1.6115,-1.6062,-1.6195,-1.6199,-1.6203,-1.6241,-1.6249,-1.6256,0,0,0,0,0,-1.5936,-1.598,-1.597,-1.5978,-1.6014,-1.6048,-1.6053,-1.6047,-1.6026,-1.6047,-1.6051,-1.6036,-1.6107,-1.6083,-1.6091,-1.6122,-1.6194,-1.6198,-1.6203,-1.6238,-1.6247,-1.6256,0,0,0,0,0,0,-1.5973,-1.5981,-1.597,-1.6019,-1.6033,-1.6043,-1.607,-1.6057,-1.6079,-1.6074,-1.6067,-1.6071,-1.6116,-1.6123,-1.6096,-1.6177,-1.6147,-1.6153,-1.6171,-1.618,-1.6187,-1.6185,-1.6065,0,0,0,0,0,-1.5986,-1.6012,-1.6018,-1.6061,-1.6068,-1.6068,-1.6082,-1.6076,-1.6091,-1.6097,-1.6104,-1.612,-1.6146,-1.6163,-1.6187,-1.6242,-1.6245,-1.6267,-1.6274,-1.628,-1.6286,-1.6316,-1.6326,-1.622,-1.622,-1.622,0,0,-1.6015,-1.6023,-1.604,-1.6069,-1.6079,-1.6106,-1.6073,-1.6104,-1.6125,-1.6102,-1.6143,-1.6149,-1.6166,-1.6215,-1.6237,-1.6222,-1.6316,-1.6286,-1.6291,-1.6293,-1.6321,-1.6331,-1.634,-1.6223,-1.6222,-1.6222,0,0,-1.6082,-1.609,-1.6126,-1.6137,-1.6152,-1.6151,-1.616,-1.6172,-1.6175,-1.6215,-1.6199,-1.6224,-1.6269,-1.6281,-1.6294,-1.6365,-1.6352,-1.6373,-1.6412,-1.6441,-1.6449,-1.6457,-1.6483,-1.6492,-1.6379,-1.6379,-1.6379,0,-1.6116,-1.6156,-1.6147,-1.6179,-1.6192,-1.6171,-1.6209,-1.622,-1.6243,-1.6253,-1.6235,-1.6291,-1.6301,-1.6353,-1.637,-1.638,-1.6391,-1.6371,-1.6448,-1.6456,-1.6463,-1.6487,-1.6497,-1.6381,-1.6381,-1.6381,-1.638,0,-1.6198,-1.6226,-1.6254,-1.6275,-1.6291,-1.6326,-1.6323,-1.6341,-1.6333,-1.6335,-1.6377,-1.6388,-1.6414,-1.6425,-1.6419,-1.6477,-1.6467,-1.6449,-1.6419,-1.6475,-1.6498,-1.6508,-1.6385,-1.6384,-1.6383,-1.6383,0,0,-1.629,-1.6305,-1.6315,-1.6324,-1.6339,-1.6361,-1.6395,-1.6419,-1.6435,-1.6452,-1.6481,-1.6518,-1.6502,-1.6516,-1.651,-1.6536,-1.6592,-1.6515,-1.6515,-1.653,-1.6657,-1.6671,-1.6682,-1.6583,-1.6585,-1.6586,-1.6656,0,-1.6357,-1.6415,-1.6407,-1.6463,-1.6489,-1.6469,-1.6499,-1.6512,-1.6514,-1.6537,-1.654,-1.6567,-1.6543,-1.6552,-1.6576,-1.658,-1.6618,-1.6575,-1.6611,-1.6612,-1.6608,-1.6694,-1.6709,-1.6774,-1.6665,-1.6666,-1.6667,0,-1.6444,-1.6462,-1.652,-1.6531,-1.6542,-1.6568,-1.659,-1.6612,-1.6627,-1.6626,-1.6642,-1.6632,-1.6666,-1.6635,-1.6683,-1.6654,-1.6668,-1.6673,-1.6675,-1.6679,-1.6644,-1.6701,-1.6795,-1.6805,-1.6681,-1.668,-1.6679,0,-1.6506,-1.6545,-1.6585,-1.6593,-1.6607,-1.6626,-1.6633,-1.6645,-1.666,-1.6679,-1.6689,-1.6713,-1.6726,-1.6745,-1.6741,-1.6719,-1.6791,-1.6759,-1.6793,-1.6793,-1.681,-1.6809,-1.6908,-1.6818,-1.6818,-1.6817,-1.6817,0,-1.6583,-1.662,-1.6613,-1.6637,-1.6678,-1.6669,-1.671,-1.6714,-1.6725,-1.6751,-1.6735,-1.676,-1.6754,-1.6779,-1.6776,-1.6817,-1.6823,-1.6825,-1.6824,-1.6827,-1.6827,-1.6837,-1.6832,-1.682,-1.6819,-1.6819,-1.6818,0,-1.6659,-1.6656,-1.6698,-1.6707,-1.671,-1.674,-1.6747,-1.6771,-1.6771,-1.6804,-1.6812,-1.6813,-1.6841,-1.6839,-1.6872,-1.687,-1.6921,-1.6914,-1.6916,-1.6915,-1.6949,-1.6946,-1.7059,-1.7073,-1.6973,-1.6973,-1.6974,0,-1.6709,-1.6736,-1.6748,-1.6763,-1.6771,-1.6796,-1.6811,-1.6803,-1.682,-1.6838,-1.686,-1.6886,-1.6907,-1.6954,-1.6958,-1.6983,-1.6978,-1.7015,-1.6981,-1.6983,-1.6979,-1.6978,-1.6981,-1.7022,-1.7023,-1.7024,-1.7025,0,-1.6798,-1.6795,-1.6816,-1.6837,-1.6855,-1.6872,-1.6887,-1.6901,-1.6895,-1.6914,-1.6942,-1.6959,-1.6991,-1.7018,-1.7042,-1.7049,-1.7037,-1.7036,-1.7045,-1.7048,-1.7048,-1.7049,-1.6935,-1.7033,-1.7032,-1.7032,-1.7031,-1.7031,-1.6863,-1.6886,-1.6897,-1.6922,-1.6932,-1.6947,-1.6969,-1.6972,-1.6995,-1.702,-1.7014,-1.7046,-1.706,-1.709,-1.71,-1.7126,-1.7112,-1.7126,-1.7129,-1.7133,-1.7137,-1.7043,-1.713,-1.713,-1.7129,-1.7129,-1.7129,0,-1.6951,-1.6957,-1.698,-1.7001,-1.702,-1.7005,-1.7021,-1.7039,-1.7066,-1.708,-1.71,-1.7133,-1.7159,-1.7165,-1.719,-1.721,-1.7205,-1.7217,-1.7216,-1.7218,-1.7147,-1.7137,-1.722,-1.722,-1.722,-1.722,-1.722,-1.722,-1.6999,-1.7038,-1.7036,-1.7081,-1.7087,-1.7117,-1.7127,-1.7141,-1.7151,-1.7188,-1.7209,-1.7212,-1.7223,-1.7249,-1.7272,-1.7273,-1.7284,-1.7299,-1.7298,-1.7232,-1.7223,-1.7214,-1.7204,-1.7301,-1.7301,-1.7366,-1.7367,-1.7367]},{"header":{"parameterUnit":"m.s-1","parameterCategory":1,"la1":30.2991,"la2":30.254,"lo1":-89.0895,"lo2":-89.0444,"dy":0.0017,"dx":0.0017,"nx":28,"ny":28,"refTime":"2026-02-26T09:00:00:Z","depth":0,"parameterNumber":3,"parameterNumberName":"V-component_of_WINDS"},"data":[0,0,0,0,0,0,0,0,0,0,0,0,0,0,0,0,0,0,0,0,0,0,0,0,0,0,0,0,0,0,0,0,0,0,0,0,0,0,0,0,0,0,0,0,0,0,0,0,0,0,0,0,0,0,0,0,0,0,-2.4286,-2.4286,0,-2.4299,-2.4299,-2.4299,-2.4257,-2.4255,-2.4254,-2.4253,-2.4266,-2.4267,-2.4269,0,0,0,0,0,0,0,0,0,0,0,0,0,-2.4221,-2.4222,-2.4286,-2.4286,-2.4286,-2.4299,-2.4299,-2.43,-2.4257,-2.4255,-2.4254,-2.4252,-2.4265,-2.4267,-2.4269,0,0,0,0,0,0,0,0,0,0,0,0,0,-2.4243,-2.4223,-2.4286,-2.4266,-2.4265,-2.4299,-2.4299,-2.43,-2.4257,-2.4255,-2.4253,-2.4252,-2.4265,-2.4267,-2.4269,-2.4322,0,0,-2.4276,-2.4277,0,0,0,0,0,0,0,0,-2.4242,-2.4246,-2.4269,-2.4268,-2.4266,-2.4274,-2.4281,-2.4307,-2.4258,-2.426,-2.4253,-2.4251,-2.427,-2.4272,-2.4279,-2.4323,-2.4323,-2.4276,-2.4278,-2.4279,-2.4279,0,0,0,0,0,0,0,-2.4241,-2.4245,-2.4291,-2.4269,-2.4268,-2.4256,-2.4257,-2.4286,-2.4276,-2.426,-2.4257,-2.4259,-2.4269,-2.4276,-2.4279,-2.4324,-2.4276,-2.4278,-2.428,-2.4281,-2.4412,-2.4414,0,0,0,0,0,0,-2.4242,-2.4244,-2.429,-2.4291,-2.4249,-2.4259,-2.426,-2.4274,-2.4275,-2.4274,-2.4261,-2.4257,-2.4273,-2.4276,-2.4279,-2.4341,-2.4279,-2.4281,-2.4282,-2.441,-2.4412,-2.4415,0,0,0,0,0,0,-2.4241,-2.4246,-2.429,-2.4267,-2.4271,-2.4262,-2.4278,-2.4275,-2.4282,-2.4276,-2.4274,-2.427,-2.4272,-2.4276,-2.4312,-2.4341,-2.4282,-2.4284,-2.4407,-2.4411,-2.4414,-2.4467,0,0,0,0,0,0,-2.4239,-2.4246,-2.4267,-2.4268,-2.4273,-2.4323,-2.4279,-2.4277,-2.4287,-2.4282,-2.4285,-2.4283,-2.4271,-2.4309,-2.4314,-2.4343,-2.4286,-2.4405,-2.4409,-2.4413,-2.4463,-2.4472,-2.4479,0,0,0,0,0,-2.4237,-2.4281,-2.4268,-2.4274,-2.4299,-2.4325,-2.4328,-2.4313,-2.4289,-2.431,-2.4305,-2.4283,-2.4337,-2.4313,-2.4319,-2.4349,-2.4403,-2.4408,-2.4412,-2.4459,-2.447,-2.4479,0,0,0,0,0,0,-2.4283,-2.4281,-2.4266,-2.4312,-2.4319,-2.4318,-2.4343,-2.4325,-2.4339,-2.4334,-2.4315,-2.4316,-2.4356,-2.4356,-2.4329,-2.44,-2.4366,-2.4372,-2.4399,-2.4409,-2.4418,-2.4417,-2.4288,0,0,0,0,0,-2.4299,-2.4321,-2.4318,-2.4358,-2.4363,-2.4353,-2.4364,-2.4352,-2.4358,-2.4361,-2.4359,-2.4366,-2.4384,-2.4396,-2.4413,-2.4462,-2.4462,-2.4486,-2.4494,-2.4501,-2.4507,-2.4533,-2.4543,-2.443,-2.443,-2.443,0,0,-2.4332,-2.4333,-2.4348,-2.4368,-2.4372,-2.4395,-2.4355,-2.4382,-2.4398,-2.4364,-2.4399,-2.4398,-2.4404,-2.4447,-2.4466,-2.4448,-2.4538,-2.4507,-2.4512,-2.4514,-2.4538,-2.4549,-2.4559,-2.4433,-2.4433,-2.4432,0,0,-2.4403,-2.4406,-2.4441,-2.4446,-2.4452,-2.4445,-2.4453,-2.4455,-2.4453,-2.4487,-2.4462,-2.4482,-2.4514,-2.4519,-2.4526,-2.4599,-2.4579,-2.4605,-2.4649,-2.4674,-2.4683,-2.4691,-2.4717,-2.4727,-2.461,-2.461,-2.4611,0,-2.4442,-2.4477,-2.446,-2.4489,-2.4498,-2.4468,-2.4503,-2.4508,-2.452,-2.4527,-2.4507,-2.4547,-2.4549,-2.4592,-2.461,-2.4617,-2.4625,-2.4605,-2.4683,-2.4691,-2.4698,-2.4723,-2.4733,-2.4614,-2.4613,-2.4613,-2.4613,0,-2.4525,-2.455,-2.4576,-2.4589,-2.4601,-2.4633,-2.462,-2.4634,-2.4621,-2.4616,-2.4651,-2.4652,-2.4669,-2.4678,-2.4665,-2.472,-2.4709,-2.4687,-2.4651,-2.4712,-2.4735,-2.4745,-2.4618,-2.4617,-2.4616,-2.4615,0,0,-2.4627,-2.463,-2.464,-2.4646,-2.4651,-2.4669,-2.4698,-2.4715,-2.4728,-2.4736,-2.4761,-2.4788,-2.4767,-2.4775,-2.4763,-2.4785,-2.4843,-2.476,-2.476,-2.4776,-2.4904,-2.4921,-2.4933,-2.483,-2.4831,-2.4833,-2.4904,0,-2.4698,-2.4749,-2.4735,-2.4786,-2.4808,-2.478,-2.4806,-2.4811,-2.4807,-2.4825,-2.482,-2.484,-2.4811,-2.4815,-2.4836,-2.4832,-2.4869,-2.4826,-2.4852,-2.4853,-2.4852,-2.4945,-2.4963,-2.503,-2.4912,-2.4914,-2.4915,0,-2.4787,-2.48,-2.4854,-2.4855,-2.4864,-2.4887,-2.4901,-2.4919,-2.4924,-2.4919,-2.4928,-2.4911,-2.4939,-2.4904,-2.4943,-2.4914,-2.4924,-2.4923,-2.4925,-2.4928,-2.4888,-2.495,-2.5051,-2.5062,-2.4929,-2.4928,-2.4927,0,-2.4857,-2.4887,-2.4923,-2.4929,-2.4931,-2.4948,-2.495,-2.4954,-2.4964,-2.4976,-2.4983,-2.4998,-2.5006,-2.5017,-2.5004,-2.498,-2.5046,-2.5009,-2.5042,-2.5043,-2.5058,-2.5058,-2.5163,-2.5063,-2.5063,-2.5063,-2.5063,0,-2.4937,-2.4971,-2.4955,-2.4977,-2.5014,-2.4997,-2.5034,-2.5032,-2.5036,-2.5057,-2.5033,-2.5053,-2.5034,-2.5053,-2.5043,-2.5077,-2.508,-2.5077,-2.5074,-2.508,-2.508,-2.5086,-2.5082,-2.5066,-2.5065,-2.5065,-2.5064,0,-2.5022,-2.5012,-2.5049,-2.5049,-2.5049,-2.5077,-2.5076,-2.5096,-2.509,-2.5117,-2.5122,-2.5112,-2.5133,-2.5121,-2.5141,-2.5134,-2.5179,-2.5169,-2.5177,-2.5175,-2.521,-2.5207,-2.5323,-2.5337,-2.5228,-2.5229,-2.523,0,-2.5074,-2.51,-2.5102,-2.5115,-2.5118,-2.5139,-2.515,-2.5133,-2.5146,-2.5154,-2.5173,-2.5192,-2.5206,-2.5239,-2.5234,-2.5249,-2.524,-2.528,-2.5242,-2.5247,-2.5242,-2.5241,-2.5243,-2.5288,-2.5289,-2.529,-2.5291,0,-2.5169,-2.5162,-2.5179,-2.5195,-2.5209,-2.522,-2.5229,-2.524,-2.5224,-2.5239,-2.526,-2.5271,-2.5292,-2.5311,-2.5324,-2.5325,-2.5306,-2.5302,-2.5311,-2.5318,-2.5322,-2.5321,-2.5199,-2.53,-2.5299,-2.5298,-2.5298,-2.5298,-2.5239,-2.526,-2.5266,-2.5285,-2.529,-2.5299,-2.5319,-2.5315,-2.5332,-2.5349,-2.5337,-2.5362,-2.5367,-2.5382,-2.5386,-2.5405,-2.5389,-2.5401,-2.5404,-2.5408,-2.5413,-2.5318,-2.5407,-2.5407,-2.5406,-2.5406,-2.5406,0,-2.5333,-2.5334,-2.5353,-2.5366,-2.5382,-2.5362,-2.5371,-2.5385,-2.5407,-2.5413,-2.5428,-2.5452,-2.5469,-2.5465,-2.5481,-2.5497,-2.5489,-2.5502,-2.5501,-2.5502,-2.5426,-2.5417,-2.5509,-2.5509,-2.5509,-2.5509,-2.5509,-2.5508,-2.5383,-2.5419,-2.5413,-2.5451,-2.5452,-2.5477,-2.5484,-2.5492,-2.5496,-2.5524,-2.5539,-2.5536,-2.5538,-2.5554,-2.557,-2.5568,-2.5575,-2.5592,-2.5587,-2.5517,-2.5507,-2.5497,-2.5489,-2.5593,-2.5594,-2.5661,-2.5661,-2.5662]}]]